datetime,flow
1966-08-01,96.0
1966-08-02,116.0
1966-08-03,139.0
1966-08-04,109.0
1966-08-05,98.0
1966-08-06,91.0
1966-08-07,83.0
1966-08-08,79.0
1966-08-09,76.0
1966-08-10,72.0
1966-08-11,72.0
1966-08-12,72.0
1966-08-13,67.0
1966-08-14,64.0
1966-08-15,62.0
1966-08-16,59.0
1966-08-17,59.0
1966-08-18,59.0
1966-08-19,59.0
1966-08-20,62.0
1966-08-21,58.0
1966-08-22,54.0
1966-08-23,52.0
1966-08-24,49.0
1966-08-25,47.0
1966-08-26,46.0
1966-08-27,47.0
1966-08-28,45.0
1966-08-29,44.0
1966-08-30,42.0
1966-08-31,52.0
1966-09-01,64.0
1966-09-02,56.0
1966-09-03,49.0
1966-09-04,47.0
1966-09-05,46.0
1966-09-06,47.0
1966-09-07,47.0
1966-09-08,45.0
1966-09-09,43.0
1966-09-10,43.0
1966-09-11,49.0
1966-09-12,96.0
1966-09-13,67.0
1966-09-14,85.0
1966-09-15,79.0
1966-09-16,76.0
1966-09-17,74.0
1966-09-18,62.0
1966-09-19,59.0
1966-09-20,58.0
1966-09-21,56.0
1966-09-22,56.0
1966-09-23,54.0
1966-09-24,64.0
1966-09-25,89.0
1966-09-26,69.0
1966-09-27,64.0
1966-09-28,62.0
1966-09-29,58.0
1966-09-30,56.0
1966-10-01,57.0
1966-10-02,65.0
1966-10-03,79.0
1966-10-04,74.0
1966-10-05,81.0
1966-10-06,87.0
1966-10-07,90.0
1966-10-08,79.0
1966-10-09,70.0
1966-10-10,64.0
1966-10-11,64.0
1966-10-12,66.0
1966-10-13,71.0
1966-10-14,68.0
1966-10-15,71.0
1966-10-16,70.0
1966-10-17,68.0
1966-10-18,65.0
1966-10-19,68.0
1966-10-20,65.0
1966-10-21,57.0
1966-10-22,71.0
1966-10-23,64.0
1966-10-24,59.0
1966-10-25,60.0
1966-10-26,60.0
1966-10-27,60.0
1966-10-28,57.0
1966-10-29,57.0
1966-10-30,53.0
1966-10-31,53.0
1966-11-01,48.0
1966-11-02,52.0
1966-11-03,49.0
1966-11-04,46.0
1966-11-05,48.0
1966-11-06,46.0
1966-11-07,47.0
1966-11-08,44.0
1966-11-09,40.0
1966-11-10,43.0
1966-11-11,46.0
1966-11-12,52.0
1966-11-13,60.0
1966-11-14,64.0
1966-11-15,64.0
1966-11-16,54.0
1966-11-17,55.0
1966-11-18,48.0
1966-11-19,45.0
1966-11-20,42.0
1966-11-21,43.0
1966-11-22,44.0
1966-11-23,46.0
1966-11-24,45.0
1966-11-25,44.0
1966-11-26,43.0
1966-11-27,42.0
1966-11-28,42.0
1966-11-29,43.0
1966-11-30,43.0
1966-12-01,43.0
1966-12-02,44.0
1966-12-03,46.0
1966-12-04,48.0
1966-12-05,46.0
1966-12-06,46.0
1966-12-07,46.0
1966-12-08,45.0
1966-12-09,43.0
1966-12-10,41.0
1966-12-11,40.0
1966-12-12,40.0
1966-12-13,40.0
1966-12-14,41.0
1966-12-15,41.0
1966-12-16,42.0
1966-12-17,43.0
1966-12-18,47.0
1966-12-19,45.0
1966-12-20,44.0
1966-12-21,44.0
1966-12-22,42.0
1966-12-23,41.0
1966-12-24,38.0
1966-12-25,36.0
1966-12-26,36.0
1966-12-27,36.0
1966-12-28,35.0
1966-12-29,35.0
1966-12-30,36.0
1966-12-31,36.0
1967-01-01,37.0
1967-01-02,38.0
1967-01-03,40.0
1967-01-04,38.0
1967-01-05,37.0
1967-01-06,35.0
1967-01-07,35.0
1967-01-08,34.0
1967-01-09,33.0
1967-01-10,32.0
1967-01-11,32.0
1967-01-12,33.0
1967-01-13,34.0
1967-01-14,35.0
1967-01-15,36.0
1967-01-16,35.0
1967-01-17,33.0
1967-01-18,33.0
1967-01-19,33.0
1967-01-20,34.0
1967-01-21,35.0
1967-01-22,35.0
1967-01-23,35.0
1967-01-24,34.0
1967-01-25,33.0
1967-01-26,31.0
1967-01-27,32.0
1967-01-28,32.0
1967-01-29,33.0
1967-01-30,33.0
1967-01-31,34.0
1967-02-01,32.0
1967-02-02,32.0
1967-02-03,31.0
1967-02-04,30.0
1967-02-05,29.0
1967-02-06,28.0
1967-02-07,28.0
1967-02-08,28.0
1967-02-09,28.0
1967-02-10,29.0
1967-02-11,30.0
1967-02-12,30.0
1967-02-13,31.0
1967-02-14,31.0
1967-02-15,30.0
1967-02-16,29.0
1967-02-17,28.0
1967-02-18,28.0
1967-02-19,28.0
1967-02-20,28.0
1967-02-21,28.0
1967-02-22,29.0
1967-02-23,30.0
1967-02-24,30.0
1967-02-25,30.0
1967-02-26,31.0
1967-02-27,31.0
1967-02-28,31.0
1967-03-01,31.0
1967-03-02,30.0
1967-03-03,29.0
1967-03-04,28.0
1967-03-05,27.0
1967-03-06,27.0
1967-03-07,27.0
1967-03-08,27.0
1967-03-09,27.0
1967-03-10,27.0
1967-03-11,28.0
1967-03-12,28.0
1967-03-13,28.0
1967-03-14,28.0
1967-03-15,28.0
1967-03-16,28.0
1967-03-17,27.0
1967-03-18,27.0
1967-03-19,27.0
1967-03-20,27.0
1967-03-21,27.0
1967-03-22,28.0
1967-03-23,28.0
1967-03-24,27.0
1967-03-25,25.0
1967-03-26,24.0
1967-03-27,24.0
1967-03-28,23.0
1967-03-29,23.0
1967-03-30,24.0
1967-03-31,24.0
1967-04-01,24.0
1967-04-02,25.0
1967-04-03,25.0
1967-04-04,26.0
1967-04-05,26.0
1967-04-06,27.0
1967-04-07,27.0
1967-04-08,27.0
1967-04-09,27.0
1967-04-10,27.0
1967-04-11,27.0
1967-04-12,27.0
1967-04-13,27.0
1967-04-14,27.0
1967-04-15,28.0
1967-04-16,28.0
1967-04-17,30.0
1967-04-18,31.0
1967-04-19,32.0
1967-04-20,32.0
1967-04-21,32.0
1967-04-22,31.0
1967-04-23,31.0
1967-04-24,31.0
1967-04-25,31.0
1967-04-26,31.0
1967-04-27,32.0
1967-04-28,35.0
1967-04-29,34.0
1967-04-30,33.0
1967-05-01,31.0
1967-05-02,31.0
1967-05-03,32.0
1967-05-04,32.0
1967-05-05,34.0
1967-05-06,33.0
1967-05-07,39.0
1967-05-08,54.0
1967-05-09,76.0
1967-05-10,90.0
1967-05-11,81.0
1967-05-12,68.0
1967-05-13,70.0
1967-05-14,62.0
1967-05-15,59.0
1967-05-16,72.0
1967-05-17,118.0
1967-05-18,186.0
1967-05-19,248.0
1967-05-20,309.0
1967-05-21,462.0
1967-05-22,650.0
1967-05-23,804.0
1967-05-24,1020.0
1967-05-25,1130.0
1967-05-26,907.0
1967-05-27,851.0
1967-05-28,900.0
1967-05-29,804.0
1967-05-30,645.0
1967-05-31,560.0
1967-06-01,515.0
1967-06-02,535.0
1967-06-03,630.0
1967-06-04,729.0
1967-06-05,893.0
1967-06-06,1000.0
1967-06-07,772.0
1967-06-08,711.0
1967-06-09,656.0
1967-06-10,700.0
1967-06-11,635.0
1967-06-12,683.0
1967-06-13,620.0
1967-06-14,580.0
1967-06-15,565.0
1967-06-16,540.0
1967-06-17,640.0
1967-06-18,772.0
1967-06-19,991.0
1967-06-20,1160.0
1967-06-21,1270.0
1967-06-22,1320.0
1967-06-23,1370.0
1967-06-24,1030.0
1967-06-25,1030.0
1967-06-26,1090.0
1967-06-27,1080.0
1967-06-28,1130.0
1967-06-29,977.0
1967-06-30,1040.0
1967-07-01,1060.0
1967-07-02,1030.0
1967-07-03,956.0
1967-07-04,921.0
1967-07-05,893.0
1967-07-06,851.0
1967-07-07,810.0
1967-07-08,656.0
1967-07-09,625.0
1967-07-10,605.0
1967-07-11,555.0
1967-07-12,505.0
1967-07-13,495.0
1967-07-14,505.0
1967-07-15,570.0
1967-07-16,560.0
1967-07-17,555.0
1967-07-18,457.0
1967-07-19,412.0
1967-07-20,386.0
1967-07-21,348.0
1967-07-22,336.0
1967-07-23,356.0
1967-07-24,381.0
1967-07-25,320.0
1967-07-26,297.0
1967-07-27,272.0
1967-07-28,245.0
1967-07-29,225.0
1967-07-30,213.0
1967-07-31,210.0
1967-08-01,207.0
1967-08-02,235.0
1967-08-03,198.0
1967-08-04,192.0
1967-08-05,186.0
1967-08-06,181.0
1967-08-07,279.0
1967-08-08,198.0
1967-08-09,181.0
1967-08-10,164.0
1967-08-11,156.0
1967-08-12,148.0
1967-08-13,138.0
1967-08-14,134.0
1967-08-15,129.0
1967-08-16,120.0
1967-08-17,115.0
1967-08-18,109.0
1967-08-19,102.0
1967-08-20,98.0
1967-08-21,94.0
1967-08-22,90.0
1967-08-23,85.0
1967-08-24,83.0
1967-08-25,81.0
1967-08-26,92.0
1967-08-27,109.0
1967-08-28,90.0
1967-08-29,105.0
1967-08-30,94.0
1967-08-31,87.0
1967-09-01,87.0
1967-09-02,81.0
1967-09-03,76.0
1967-09-04,72.0
1967-09-05,71.0
1967-09-06,70.0
1967-09-07,68.0
1967-09-08,71.0
1967-09-09,79.0
1967-09-10,78.0
1967-09-11,72.0
1967-09-12,71.0
1967-09-13,66.0
1967-09-14,65.0
1967-09-15,64.0
1967-09-16,62.0
1967-09-17,64.0
1967-09-18,64.0
1967-09-19,65.0
1967-09-20,59.0
1967-09-21,57.0
1967-09-22,57.0
1967-09-23,68.0
1967-09-24,57.0
1967-09-25,60.0
1967-09-26,66.0
1967-09-27,55.0
1967-09-28,53.0
1967-09-29,51.0
1967-09-30,54.0
1967-10-01,70.0
1967-10-02,74.0
1967-10-03,59.0
1967-10-04,66.0
1967-10-05,74.0
1967-10-06,72.0
1967-10-07,64.0
1967-10-08,64.0
1967-10-09,60.0
1967-10-10,58.0
1967-10-11,55.0
1967-10-12,54.0
1967-10-13,52.0
1967-10-14,53.0
1967-10-15,51.0
1967-10-16,49.0
1967-10-17,51.0
1967-10-18,49.0
1967-10-19,48.0
1967-10-20,46.0
1967-10-21,48.0
1967-10-22,47.0
1967-10-23,47.0
1967-10-24,54.0
1967-10-25,55.0
1967-10-26,48.0
1967-10-27,47.0
1967-10-28,51.0
1967-10-29,46.0
1967-10-30,76.0
1967-10-31,64.0
1967-11-01,60.0
1967-11-02,46.0
1967-11-03,44.0
1967-11-04,50.0
1967-11-05,48.0
1967-11-06,46.0
1967-11-07,45.0
1967-11-08,47.0
1967-11-09,45.0
1967-11-10,46.0
1967-11-11,53.0
1967-11-12,51.0
1967-11-13,45.0
1967-11-14,44.0
1967-11-15,43.0
1967-11-16,42.0
1967-11-17,40.0
1967-11-18,49.0
1967-11-19,44.0
1967-11-20,43.0
1967-11-21,39.0
1967-11-22,38.0
1967-11-23,36.0
1967-11-24,41.0
1967-11-25,44.0
1967-11-26,39.0
1967-11-27,34.0
1967-11-28,36.0
1967-11-29,38.0
1967-11-30,41.0
1967-12-01,40.0
1967-12-02,38.0
1967-12-03,40.0
1967-12-04,40.0
1967-12-05,40.0
1967-12-06,40.0
1967-12-07,39.0
1967-12-08,38.0
1967-12-09,36.0
1967-12-10,35.0
1967-12-11,34.0
1967-12-12,34.0
1967-12-13,34.0
1967-12-14,34.0
1967-12-15,34.0
1967-12-16,36.0
1967-12-17,37.0
1967-12-18,38.0
1967-12-19,39.0
1967-12-20,38.0
1967-12-21,32.0
1967-12-22,29.0
1967-12-23,30.0
1967-12-24,32.0
1967-12-25,31.0
1967-12-26,30.0
1967-12-27,30.0
1967-12-28,29.0
1967-12-29,29.0
1967-12-30,28.0
1967-12-31,30.0
1968-01-01,28.0
1968-01-02,28.0
1968-01-03,28.0
1968-01-04,28.0
1968-01-05,27.0
1968-01-06,27.0
1968-01-07,26.0
1968-01-08,25.0
1968-01-09,25.0
1968-01-10,25.0
1968-01-11,24.0
1968-01-12,23.0
1968-01-13,23.0
1968-01-14,23.0
1968-01-15,23.0
1968-01-16,23.0
1968-01-17,22.0
1968-01-18,22.0
1968-01-19,22.0
1968-01-20,22.0
1968-01-21,21.0
1968-01-22,21.0
1968-01-23,21.0
1968-01-24,21.0
1968-01-25,21.0
1968-01-26,21.0
1968-01-27,20.0
1968-01-28,20.0
1968-01-29,20.0
1968-01-30,21.0
1968-01-31,21.0
1968-02-01,21.0
1968-02-02,20.0
1968-02-03,20.0
1968-02-04,20.0
1968-02-05,20.0
1968-02-06,20.0
1968-02-07,20.0
1968-02-08,19.0
1968-02-09,19.0
1968-02-10,19.0
1968-02-11,19.0
1968-02-12,19.0
1968-02-13,19.0
1968-02-14,19.0
1968-02-15,18.0
1968-02-16,19.0
1968-02-17,19.0
1968-02-18,18.0
1968-02-19,18.0
1968-02-20,18.0
1968-02-21,19.0
1968-02-22,18.0
1968-02-23,19.0
1968-02-24,21.0
1968-02-25,22.0
1968-02-26,21.0
1968-02-27,21.0
1968-02-28,24.0
1968-02-29,24.0
1968-03-01,25.0
1968-03-02,23.0
1968-03-03,23.0
1968-03-04,23.0
1968-03-05,25.0
1968-03-06,24.0
1968-03-07,20.0
1968-03-08,20.0
1968-03-09,19.0
1968-03-10,19.0
1968-03-11,20.0
1968-03-12,20.0
1968-03-13,22.0
1968-03-14,23.0
1968-03-15,24.0
1968-03-16,24.0
1968-03-17,23.0
1968-03-18,23.0
1968-03-19,23.0
1968-03-20,23.0
1968-03-21,24.0
1968-03-22,24.0
1968-03-23,25.0
1968-03-24,24.0
1968-03-25,23.0
1968-03-26,23.0
1968-03-27,24.0
1968-03-28,25.0
1968-03-29,27.0
1968-03-30,29.0
1968-03-31,32.0
1968-04-01,31.0
1968-04-02,27.0
1968-04-03,26.0
1968-04-04,26.0
1968-04-05,25.0
1968-04-06,25.0
1968-04-07,25.0
1968-04-08,26.0
1968-04-09,28.0
1968-04-10,31.0
1968-04-11,32.0
1968-04-12,33.0
1968-04-13,32.0
1968-04-14,32.0
1968-04-15,31.0
1968-04-16,31.0
1968-04-17,30.0
1968-04-18,31.0
1968-04-19,32.0
1968-04-20,30.0
1968-04-21,30.0
1968-04-22,31.0
1968-04-23,31.0
1968-04-24,32.0
1968-04-25,31.0
1968-04-26,31.0
1968-04-27,30.0
1968-04-28,36.0
1968-04-29,34.0
1968-04-30,42.0
1968-05-01,49.0
1968-05-02,55.0
1968-05-03,64.0
1968-05-04,73.0
1968-05-05,90.0
1968-05-06,96.0
1968-05-07,85.0
1968-05-08,91.0
1968-05-09,104.0
1968-05-10,113.0
1968-05-11,125.0
1968-05-12,125.0
1968-05-13,141.0
1968-05-14,141.0
1968-05-15,117.0
1968-05-16,106.0
1968-05-17,101.0
1968-05-18,108.0
1968-05-19,129.0
1968-05-20,184.0
1968-05-21,276.0
1968-05-22,352.0
1968-05-23,297.0
1968-05-24,248.0
1968-05-25,214.0
1968-05-26,210.0
1968-05-27,280.0
1968-05-28,421.0
1968-05-29,613.0
1968-05-30,705.0
1968-05-31,785.0
1968-06-01,756.0
1968-06-02,902.0
1968-06-03,1200.0
1968-06-04,1340.0
1968-06-05,1810.0
1968-06-06,1720.0
1968-06-07,1170.0
1968-06-08,929.0
1968-06-09,767.0
1968-06-10,728.0
1968-06-11,720.0
1968-06-12,936.0
1968-06-13,1210.0
1968-06-14,1160.0
1968-06-15,1100.0
1968-06-16,1250.0
1968-06-17,1340.0
1968-06-18,1480.0
1968-06-19,1470.0
1968-06-20,1740.0
1968-06-21,1550.0
1968-06-22,1410.0
1968-06-23,1370.0
1968-06-24,1300.0
1968-06-25,1080.0
1968-06-26,924.0
1968-06-27,944.0
1968-06-28,982.0
1968-06-29,917.0
1968-06-30,647.0
1968-07-01,549.0
1968-07-02,537.0
1968-07-03,541.0
1968-07-04,519.0
1968-07-05,513.0
1968-07-06,498.0
1968-07-07,466.0
1968-07-08,443.0
1968-07-09,428.0
1968-07-10,444.0
1968-07-11,429.0
1968-07-12,417.0
1968-07-13,392.0
1968-07-14,371.0
1968-07-15,345.0
1968-07-16,323.0
1968-07-17,296.0
1968-07-18,282.0
1968-07-19,269.0
1968-07-20,255.0
1968-07-21,248.0
1968-07-22,255.0
1968-07-23,346.0
1968-07-24,250.0
1968-07-25,235.0
1968-07-26,223.0
1968-07-27,211.0
1968-07-28,204.0
1968-07-29,191.0
1968-07-30,190.0
1968-07-31,176.0
1968-08-01,165.0
1968-08-02,163.0
1968-08-03,160.0
1968-08-04,180.0
1968-08-05,159.0
1968-08-06,167.0
1968-08-07,162.0
1968-08-08,161.0
1968-08-09,178.0
1968-08-10,175.0
1968-08-11,151.0
1968-08-12,140.0
1968-08-13,147.0
1968-08-14,173.0
1968-08-15,175.0
1968-08-16,137.0
1968-08-17,140.0
1968-08-18,150.0
1968-08-19,210.0
1968-08-20,151.0
1968-08-21,132.0
1968-08-22,149.0
1968-08-23,172.0
1968-08-24,155.0
1968-08-25,126.0
1968-08-26,117.0
1968-08-27,123.0
1968-08-28,123.0
1968-08-29,111.0
1968-08-30,102.0
1968-08-31,97.0
1968-09-01,94.0
1968-09-02,90.0
1968-09-03,88.0
1968-09-04,87.0
1968-09-05,83.0
1968-09-06,79.0
1968-09-07,73.0
1968-09-08,70.0
1968-09-09,68.0
1968-09-10,66.0
1968-09-11,65.0
1968-09-12,70.0
1968-09-13,65.0
1968-09-14,86.0
1968-09-15,85.0
1968-09-16,78.0
1968-09-17,74.0
1968-09-18,72.0
1968-09-19,64.0
1968-09-20,66.0
1968-09-21,71.0
1968-09-22,67.0
1968-09-23,66.0
1968-09-24,64.0
1968-09-25,60.0
1968-09-26,58.0
1968-09-27,56.0
1968-09-28,59.0
1968-09-29,66.0
1968-09-30,64.0
1968-10-01,58.0
1968-10-02,55.0
1968-10-03,52.0
1968-10-04,52.0
1968-10-05,53.0
1968-10-06,50.0
1968-10-07,53.0
1968-10-08,49.0
1968-10-09,44.0
1968-10-10,50.0
1968-10-11,46.0
1968-10-12,48.0
1968-10-13,46.0
1968-10-14,66.0
1968-10-15,72.0
1968-10-16,49.0
1968-10-17,67.0
1968-10-18,68.0
1968-10-19,58.0
1968-10-20,54.0
1968-10-21,51.0
1968-10-22,46.0
1968-10-23,47.0
1968-10-24,47.0
1968-10-25,46.0
1968-10-26,46.0
1968-10-27,43.0
1968-10-28,45.0
1968-10-29,45.0
1968-10-30,45.0
1968-10-31,46.0
1968-11-01,40.0
1968-11-02,45.0
1968-11-03,47.0
1968-11-04,44.0
1968-11-05,41.0
1968-11-06,39.0
1968-11-07,37.0
1968-11-08,38.0
1968-11-09,41.0
1968-11-10,43.0
1968-11-11,43.0
1968-11-12,40.0
1968-11-13,37.0
1968-11-14,36.0
1968-11-15,37.0
1968-11-16,40.0
1968-11-17,39.0
1968-11-18,37.0
1968-11-19,38.0
1968-11-20,40.0
1968-11-21,41.0
1968-11-22,40.0
1968-11-23,39.0
1968-11-24,38.0
1968-11-25,38.0
1968-11-26,38.0
1968-11-27,38.0
1968-11-28,38.0
1968-11-29,37.0
1968-11-30,37.0
1968-12-01,37.0
1968-12-02,37.0
1968-12-03,37.0
1968-12-04,37.0
1968-12-05,37.0
1968-12-06,38.0
1968-12-07,37.0
1968-12-08,37.0
1968-12-09,37.0
1968-12-10,37.0
1968-12-11,37.0
1968-12-12,37.0
1968-12-13,36.0
1968-12-14,36.0
1968-12-15,37.0
1968-12-16,38.0
1968-12-17,38.0
1968-12-18,38.0
1968-12-19,37.0
1968-12-20,37.0
1968-12-21,37.0
1968-12-22,38.0
1968-12-23,38.0
1968-12-24,38.0
1968-12-25,37.0
1968-12-26,37.0
1968-12-27,37.0
1968-12-28,37.0
1968-12-29,36.0
1968-12-30,37.0
1968-12-31,38.0
1969-01-01,39.0
1969-01-02,39.0
1969-01-03,36.0
1969-01-04,36.0
1969-01-05,36.0
1969-01-06,36.0
1969-01-07,37.0
1969-01-08,37.0
1969-01-09,37.0
1969-01-10,37.0
1969-01-11,36.0
1969-01-12,36.0
1969-01-13,36.0
1969-01-14,36.0
1969-01-15,35.0
1969-01-16,35.0
1969-01-17,36.0
1969-01-18,38.0
1969-01-19,38.0
1969-01-20,38.0
1969-01-21,37.0
1969-01-22,37.0
1969-01-23,36.0
1969-01-24,36.0
1969-01-25,36.0
1969-01-26,37.0
1969-01-27,38.0
1969-01-28,39.0
1969-01-29,40.0
1969-01-30,40.0
1969-01-31,39.0
1969-02-01,38.0
1969-02-02,37.0
1969-02-03,36.0
1969-02-04,35.0
1969-02-05,35.0
1969-02-06,34.0
1969-02-07,34.0
1969-02-08,34.0
1969-02-09,34.0
1969-02-10,34.0
1969-02-11,35.0
1969-02-12,35.0
1969-02-13,35.0
1969-02-14,35.0
1969-02-15,34.0
1969-02-16,34.0
1969-02-17,34.0
1969-02-18,34.0
1969-02-19,34.0
1969-02-20,35.0
1969-02-21,35.0
1969-02-22,34.0
1969-02-23,33.0
1969-02-24,33.0
1969-02-25,34.0
1969-02-26,36.0
1969-02-27,35.0
1969-02-28,34.0
1969-03-01,33.0
1969-03-02,34.0
1969-03-03,35.0
1969-03-04,36.0
1969-03-05,37.0
1969-03-06,36.0
1969-03-07,35.0
1969-03-08,34.0
1969-03-09,33.0
1969-03-10,33.0
1969-03-11,32.0
1969-03-12,33.0
1969-03-13,33.0
1969-03-14,34.0
1969-03-15,35.0
1969-03-16,37.0
1969-03-17,38.0
1969-03-18,40.0
1969-03-19,40.0
1969-03-20,38.0
1969-03-21,36.0
1969-03-22,37.0
1969-03-23,36.0
1969-03-24,40.0
1969-03-25,42.0
1969-03-26,45.0
1969-03-27,47.0
1969-03-28,50.0
1969-03-29,52.0
1969-03-30,52.0
1969-03-31,53.0
1969-04-01,53.0
1969-04-02,52.0
1969-04-03,56.0
1969-04-04,62.0
1969-04-05,65.0
1969-04-06,68.0
1969-04-07,63.0
1969-04-08,60.0
1969-04-09,65.0
1969-04-10,72.0
1969-04-11,83.0
1969-04-12,90.0
1969-04-13,90.0
1969-04-14,88.0
1969-04-15,80.0
1969-04-16,74.0
1969-04-17,68.0
1969-04-18,69.0
1969-04-19,75.0
1969-04-20,80.0
1969-04-21,81.0
1969-04-22,85.0
1969-04-23,115.0
1969-04-24,110.0
1969-04-25,90.0
1969-04-26,73.0
1969-04-27,65.0
1969-04-28,68.0
1969-04-29,100.0
1969-04-30,130.0
1969-05-01,170.0
1969-05-02,220.0
1969-05-03,250.0
1969-05-04,280.0
1969-05-05,310.0
1969-05-06,300.0
1969-05-07,340.0
1969-05-08,410.0
1969-05-09,500.0
1969-05-10,574.0
1969-05-11,609.0
1969-05-12,639.0
1969-05-13,659.0
1969-05-14,669.0
1969-05-15,687.0
1969-05-16,570.0
1969-05-17,657.0
1969-05-18,770.0
1969-05-19,813.0
1969-05-20,801.0
1969-05-21,718.0
1969-05-22,767.0
1969-05-23,761.0
1969-05-24,714.0
1969-05-25,857.0
1969-05-26,911.0
1969-05-27,936.0
1969-05-28,882.0
1969-05-29,829.0
1969-05-30,799.0
1969-05-31,705.0
1969-06-01,534.0
1969-06-02,509.0
1969-06-03,513.0
1969-06-04,547.0
1969-06-05,613.0
1969-06-06,568.0
1969-06-07,584.0
1969-06-08,499.0
1969-06-09,505.0
1969-06-10,480.0
1969-06-11,373.0
1969-06-12,350.0
1969-06-13,354.0
1969-06-14,348.0
1969-06-15,371.0
1969-06-16,462.0
1969-06-17,427.0
1969-06-18,405.0
1969-06-19,376.0
1969-06-20,419.0
1969-06-21,393.0
1969-06-22,349.0
1969-06-23,343.0
1969-06-24,399.0
1969-06-25,381.0
1969-06-26,355.0
1969-06-27,328.0
1969-06-28,310.0
1969-06-29,272.0
1969-06-30,256.0
1969-07-01,262.0
1969-07-02,288.0
1969-07-03,321.0
1969-07-04,317.0
1969-07-05,293.0
1969-07-06,277.0
1969-07-07,251.0
1969-07-08,235.0
1969-07-09,227.0
1969-07-10,221.0
1969-07-11,214.0
1969-07-12,214.0
1969-07-13,227.0
1969-07-14,259.0
1969-07-15,247.0
1969-07-16,221.0
1969-07-17,204.0
1969-07-18,199.0
1969-07-19,186.0
1969-07-20,171.0
1969-07-21,171.0
1969-07-22,165.0
1969-07-23,156.0
1969-07-24,157.0
1969-07-25,152.0
1969-07-26,143.0
1969-07-27,132.0
1969-07-28,153.0
1969-07-29,173.0
1969-07-30,238.0
1969-07-31,152.0
1969-08-01,141.0
1969-08-02,135.0
1969-08-03,156.0
1969-08-04,143.0
1969-08-05,138.0
1969-08-06,113.0
1969-08-07,104.0
1969-08-08,94.0
1969-08-09,89.0
1969-08-10,90.0
1969-08-11,89.0
1969-08-12,94.0
1969-08-13,84.0
1969-08-14,81.0
1969-08-15,75.0
1969-08-16,86.0
1969-08-17,95.0
1969-08-18,100.0
1969-08-19,82.0
1969-08-20,78.0
1969-08-21,75.0
1969-08-22,69.0
1969-08-23,68.0
1969-08-24,69.0
1969-08-25,67.0
1969-08-26,66.0
1969-08-27,69.0
1969-08-28,64.0
1969-08-29,76.0
1969-08-30,67.0
1969-08-31,60.0
1969-09-01,53.0
1969-09-02,56.0
1969-09-03,62.0
1969-09-04,66.0
1969-09-05,56.0
1969-09-06,54.0
1969-09-07,53.0
1969-09-08,53.0
1969-09-09,60.0
1969-09-10,58.0
1969-09-11,75.0
1969-09-12,55.0
1969-09-13,53.0
1969-09-14,53.0
1969-09-15,53.0
1969-09-16,54.0
1969-09-17,54.0
1969-09-18,52.0
1969-09-19,49.0
1969-09-20,49.0
1969-09-21,58.0
1969-09-22,57.0
1969-09-23,51.0
1969-09-24,48.0
1969-09-25,46.0
1969-09-26,46.0
1969-09-27,45.0
1969-09-28,44.0
1969-09-29,43.0
1969-09-30,44.0
1969-10-01,44.0
1969-10-02,50.0
1969-10-03,48.0
1969-10-04,50.0
1969-10-05,48.0
1969-10-06,51.0
1969-10-07,51.0
1969-10-08,51.0
1969-10-09,47.0
1969-10-10,46.0
1969-10-11,44.0
1969-10-12,44.0
1969-10-13,57.0
1969-10-14,58.0
1969-10-15,52.0
1969-10-16,53.0
1969-10-17,50.0
1969-10-18,60.0
1969-10-19,64.0
1969-10-20,65.0
1969-10-21,63.0
1969-10-22,59.0
1969-10-23,56.0
1969-10-24,55.0
1969-10-25,52.0
1969-10-26,51.0
1969-10-27,50.0
1969-10-28,51.0
1969-10-29,50.0
1969-10-30,63.0
1969-10-31,70.0
1969-11-01,51.0
1969-11-02,59.0
1969-11-03,68.0
1969-11-04,62.0
1969-11-05,57.0
1969-11-06,62.0
1969-11-07,52.0
1969-11-08,55.0
1969-11-09,62.0
1969-11-10,53.0
1969-11-11,48.0
1969-11-12,57.0
1969-11-13,51.0
1969-11-14,56.0
1969-11-15,62.0
1969-11-16,46.0
1969-11-17,48.0
1969-11-18,45.0
1969-11-19,47.0
1969-11-20,49.0
1969-11-21,48.0
1969-11-22,48.0
1969-11-23,48.0
1969-11-24,45.0
1969-11-25,43.0
1969-11-26,40.0
1969-11-27,38.0
1969-11-28,37.0
1969-11-29,37.0
1969-11-30,38.0
1969-12-01,38.0
1969-12-02,39.0
1969-12-03,39.0
1969-12-04,39.0
1969-12-05,39.0
1969-12-06,36.0
1969-12-07,33.0
1969-12-08,33.0
1969-12-09,33.0
1969-12-10,34.0
1969-12-11,35.0
1969-12-12,37.0
1969-12-13,38.0
1969-12-14,38.0
1969-12-15,38.0
1969-12-16,37.0
1969-12-17,36.0
1969-12-18,35.0
1969-12-19,36.0
1969-12-20,37.0
1969-12-21,37.0
1969-12-22,36.0
1969-12-23,35.0
1969-12-24,34.0
1969-12-25,33.0
1969-12-26,34.0
1969-12-27,33.0
1969-12-28,27.0
1969-12-29,26.0
1969-12-30,27.0
1969-12-31,29.0
1970-01-01,28.0
1970-01-02,28.0
1970-01-03,28.0
1970-01-04,27.0
1970-01-05,26.0
1970-01-06,26.0
1970-01-07,26.0
1970-01-08,26.0
1970-01-09,26.0
1970-01-10,26.0
1970-01-11,26.0
1970-01-12,26.0
1970-01-13,27.0
1970-01-14,27.0
1970-01-15,27.0
1970-01-16,27.0
1970-01-17,28.0
1970-01-18,29.0
1970-01-19,28.0
1970-01-20,28.0
1970-01-21,27.0
1970-01-22,27.0
1970-01-23,26.0
1970-01-24,27.0
1970-01-25,26.0
1970-01-26,27.0
1970-01-27,26.0
1970-01-28,24.0
1970-01-29,25.0
1970-01-30,26.0
1970-01-31,26.0
1970-02-01,27.0
1970-02-02,27.0
1970-02-03,27.0
1970-02-04,23.0
1970-02-05,26.0
1970-02-06,26.0
1970-02-07,25.0
1970-02-08,27.0
1970-02-09,26.0
1970-02-10,26.0
1970-02-11,26.0
1970-02-12,26.0
1970-02-13,25.0
1970-02-14,26.0
1970-02-15,26.0
1970-02-16,27.0
1970-02-17,25.0
1970-02-18,26.0
1970-02-19,27.0
1970-02-20,27.0
1970-02-21,26.0
1970-02-22,27.0
1970-02-23,27.0
1970-02-24,27.0
1970-02-25,26.0
1970-02-26,27.0
1970-02-27,27.0
1970-02-28,29.0
1970-03-01,26.0
1970-03-02,26.0
1970-03-03,26.0
1970-03-04,26.0
1970-03-05,26.0
1970-03-06,27.0
1970-03-07,27.0
1970-03-08,27.0
1970-03-09,28.0
1970-03-10,28.0
1970-03-11,28.0
1970-03-12,27.0
1970-03-13,26.0
1970-03-14,26.0
1970-03-15,26.0
1970-03-16,26.0
1970-03-17,27.0
1970-03-18,27.0
1970-03-19,27.0
1970-03-20,26.0
1970-03-21,27.0
1970-03-22,28.0
1970-03-23,29.0
1970-03-24,29.0
1970-03-25,28.0
1970-03-26,28.0
1970-03-27,28.0
1970-03-28,28.0
1970-03-29,29.0
1970-03-30,28.0
1970-03-31,28.0
1970-04-01,28.0
1970-04-02,29.0
1970-04-03,29.0
1970-04-04,29.0
1970-04-05,29.0
1970-04-06,30.0
1970-04-07,32.0
1970-04-08,32.0
1970-04-09,33.0
1970-04-10,34.0
1970-04-11,34.0
1970-04-12,34.0
1970-04-13,34.0
1970-04-14,34.0
1970-04-15,34.0
1970-04-16,34.0
1970-04-17,35.0
1970-04-18,34.0
1970-04-19,35.0
1970-04-20,34.0
1970-04-21,33.0
1970-04-22,33.0
1970-04-23,33.0
1970-04-24,34.0
1970-04-25,35.0
1970-04-26,33.0
1970-04-27,32.0
1970-04-28,33.0
1970-04-29,33.0
1970-04-30,33.0
1970-05-01,32.0
1970-05-02,41.0
1970-05-03,44.0
1970-05-04,52.0
1970-05-05,64.0
1970-05-06,93.0
1970-05-07,113.0
1970-05-08,128.0
1970-05-09,116.0
1970-05-10,107.0
1970-05-11,93.0
1970-05-12,93.0
1970-05-13,104.0
1970-05-14,109.0
1970-05-15,138.0
1970-05-16,222.0
1970-05-17,353.0
1970-05-18,505.0
1970-05-19,649.0
1970-05-20,694.0
1970-05-21,662.0
1970-05-22,595.0
1970-05-23,613.0
1970-05-24,733.0
1970-05-25,820.0
1970-05-26,883.0
1970-05-27,985.0
1970-05-28,1080.0
1970-05-29,948.0
1970-05-30,897.0
1970-05-31,869.0
1970-06-01,820.0
1970-06-02,948.0
1970-06-03,1060.0
1970-06-04,1100.0
1970-06-05,1050.0
1970-06-06,883.0
1970-06-07,876.0
1970-06-08,848.0
1970-06-09,862.0
1970-06-10,694.0
1970-06-11,583.0
1970-06-12,560.0
1970-06-13,532.0
1970-06-14,478.0
1970-06-15,452.0
1970-06-16,437.0
1970-06-17,427.0
1970-06-18,494.0
1970-06-19,607.0
1970-06-20,759.0
1970-06-21,841.0
1970-06-22,904.0
1970-06-23,918.0
1970-06-24,897.0
1970-06-25,855.0
1970-06-26,820.0
1970-06-27,799.0
1970-06-28,727.0
1970-06-29,607.0
1970-06-30,483.0
1970-07-01,422.0
1970-07-02,398.0
1970-07-03,389.0
1970-07-04,380.0
1970-07-05,371.0
1970-07-06,371.0
1970-07-07,357.0
1970-07-08,366.0
1970-07-09,335.0
1970-07-10,366.0
1970-07-11,310.0
1970-07-12,289.0
1970-07-13,258.0
1970-07-14,240.0
1970-07-15,226.0
1970-07-16,212.0
1970-07-17,206.0
1970-07-18,196.0
1970-07-19,200.0
1970-07-20,187.0
1970-07-21,176.0
1970-07-22,200.0
1970-07-23,222.0
1970-07-24,181.0
1970-07-25,184.0
1970-07-26,178.0
1970-07-27,176.0
1970-07-28,170.0
1970-07-29,151.0
1970-07-30,138.0
1970-07-31,123.0
1970-08-01,125.0
1970-08-02,118.0
1970-08-03,109.0
1970-08-04,110.0
1970-08-05,118.0
1970-08-06,111.0
1970-08-07,131.0
1970-08-08,124.0
1970-08-09,103.0
1970-08-10,97.0